Accueil
METAR-TAF:

METAR-TAF

Aéroports :

Aéroport d'Angers-Loire

Angers, France

latitude: 47-33-37N, longitude: 000-18-44W, altitude: 59 m

Observation

Le bulletin a été fait il y a 24 minutes, à 04:00 UTC
Vent 4 kt de ouest, variant entre ouest/sud-ouest et nord-ouest
Température 12°C
Humidité 94%
Pression 1012 hPa
Visibilité 10 km ou plus
Quelques nuages à une hauteur de 4100 ft
Ciel couvert à une hauteur de 4900 ft

METAR: LFJR 300400Z AUTO 28004KT 240V320 9999 FEW041 OVC049 12/11 Q1012

Heure: 06:24 (04:24 UTC)


TAF: absent

Observations et prévisions météorologiques de plus de 4000 aéroports (messages METAR et TAF).

Les stations disponibles sont représentées par des disques jaunes et rouges sur la carte.

Passer la souris dessus pour voir le nom de la station.

Cliquer dessus pour voir les observations et prévisions météorologiques.

Pour changer de carte: cliquez sur les boutons verts avec une croix noire pour zoomer, sur le bouton vert avec un tiret pour effectuer un zoom arrière, ou sur les flèches vertes pour les cartes adjacentes.


METAR-TAF: